Location: Edoum�
(0.9447°N, 10.6482°E)
Time: 06:51:23
(UTC+00:00)

Ariane 3 Deb - Pass Details

Date: 07 October 2020
Orbit: 229 x 18408 km, 6.8° (Epoch: 21 October)

Event Time Altitude Azimuth Distance (km) Brightness Sun altitude
Rises 16:48:30 0° 264° (W) 22,415 13.8 4.0°
Reaches altitude 10° 17:44:21 10° 261° (W) 14,890 11.2 -9.9°
Maximum altitude 18:30:11 74° 179° (S) 1,951 4.9 -21.3°
Enters shadow 18:33:43 35° 101° (ESE) 1,905 4.5 -22.1°
